TimeCDT,TemperatureF,Dew PointF,Humidity,Sea Level PressureIn,VisibilityMPH,Wind Direction,Wind SpeedMPH,Gust SpeedMPH,PrecipitationIn,Events,Conditions,WindDirDegrees,DateUTC
12:20 AM,33.8,28.4,81,30.20,10.0,NW,11.5,-,N/A,,Overcast,320,2012-10-06 05:20:00
12:29 AM,33.8,28.4,81,30.20,10.0,NW,12.7,-,N/A,,Overcast,320,2012-10-06 05:29:00
12:53 AM,33.1,30.0,89,30.25,7.0,NNW,13.8,-,N/A,,Overcast,330,2012-10-06 05:53:00
1:10 AM,33.8,30.2,87,30.20,10.0,NW,13.8,-,N/A,,Overcast,320,2012-10-06 06:10:00
1:19 AM,33.8,30.2,87,30.20,10.0,NW,12.7,-,N/A,,Overcast,320,2012-10-06 06:19:00
1:46 AM,33.8,30.2,87,30.21,10.0,NW,10.4,-,N/A,,Overcast,310,2012-10-06 06:46:00
1:53 AM,33.1,30.0,89,30.26,10.0,NW,13.8,-,N/A,,Overcast,310,2012-10-06 06:53:00
2:53 AM,34.0,28.9,82,30.26,10.0,NNW,10.4,-,N/A,,Overcast,330,2012-10-06 07:53:00
3:53 AM,34.0,28.9,82,30.27,10.0,NNW,12.7,-,N/A,,Overcast,330,2012-10-06 08:53:00
4:53 AM,34.0,27.0,75,30.28,10.0,NNW,13.8,-,N/A,,Overcast,340,2012-10-06 09:53:00
5:53 AM,34.0,27.0,75,30.29,10.0,NNW,13.8,-,N/A,,Overcast,340,2012-10-06 10:53:00
6:53 AM,33.1,26.1,75,30.31,10.0,NNW,12.7,-,N/A,,Overcast,340,2012-10-06 11:53:00
7:20 AM,33.8,26.6,75,30.27,10.0,NNW,9.2,-,N/A,,Overcast,330,2012-10-06 12:20:00
7:53 AM,33.1,26.1,75,30.33,10.0,NNW,8.1,-,N/A,,Overcast,340,2012-10-06 12:53:00
8:53 AM,34.0,27.0,75,30.35,10.0,NNW,12.7,-,N/A,,Overcast,340,2012-10-06 13:53:00
9:07 AM,33.8,24.8,70,30.30,10.0,North,13.8,19.6,N/A,,Overcast,360,2012-10-06 14:07:00
9:38 AM,35.6,24.8,65,30.32,10.0,NNW,9.2,-,N/A,,Overcast,330,2012-10-06 14:38:00
9:53 AM,35.1,25.0,67,30.37,10.0,North,8.1,-,N/A,,Overcast,350,2012-10-06 14:53:00
10:19 AM,35.6,23.0,60,30.32,10.0,North,12.7,-,N/A,,Overcast,350,2012-10-06 15:19:00
10:53 AM,36.0,23.0,59,30.38,10.0,North,8.1,-,N/A,,Overcast,10,2012-10-06 15:53:00
11:05 AM,35.6,21.2,56,30.33,10.0,North,11.5,-,N/A,,Overcast,10,2012-10-06 16:05:00
11:53 AM,37.9,21.9,53,30.38,10.0,NNW,12.7,-,N/A,,Overcast,340,2012-10-06 16:53:00
12:53 PM,39.9,21.0,47,30.37,10.0,NNW,11.5,17.3,N/A,,Mostly Cloudy,340,2012-10-06 17:53:00
1:53 PM,42.1,21.9,45,30.35,10.0,North,10.4,-,N/A,,Mostly Cloudy,10,2012-10-06 18:53:00
2:53 PM,42.1,21.9,45,30.33,10.0,NW,8.1,-,N/A,,Mostly Cloudy,320,2012-10-06 19:53:00
3:53 PM,43.0,21.0,42,30.31,10.0,NNW,4.6,-,N/A,,Mostly Cloudy,340,2012-10-06 20:53:00
4:53 PM,42.1,21.0,43,30.30,10.0,NNW,9.2,-,N/A,,Partly Cloudy,340,2012-10-06 21:53:00
6:53 PM,37.9,21.0,51,30.30,10.0,NNW,9.2,-,N/A,,Clear,330,2012-10-06 23:53:00
7:53 PM,35.1,23.0,61,30.31,10.0,NW,4.6,-,N/A,,Clear,310,2012-10-07 00:53:00
8:53 PM,34.0,23.0,64,30.30,10.0,West,3.5,-,N/A,,Clear,280,2012-10-07 01:53:00
9:53 PM,28.9,21.9,75,30.30,10.0,WSW,3.5,-,N/A,,Clear,250,2012-10-07 02:53:00
10:53 PM,27.0,21.0,78,30.29,10.0,SW,5.8,-,N/A,,Clear,220,2012-10-07 03:53:00
11:53 PM,28.9,21.0,72,30.27,10.0,SSW,5.8,-,N/A,,Clear,210,2012-10-07 04:53:00